FW1136 Weather Reports


time (UTC)temp
C
wind
direction
speed
KPH
gust
KPH
rain 1hr
cm
rain 24hr
cm
rain mn
cm
humidity
%
barometer
mb
20260508213515 23 0.0 0.0 0.00 0.00 0.00 27 1007.5
20260508212515 23 0.0 0.0 0.00 0.00 0.00 28 1007.7
20260508211515 23 0.0 0.0 0.00 0.00 0.00 28 1007.7
20260508210516 25 0.0 0.0 0.00 0.00 0.00 30 1007.7
20260508205515 23 0.0 0.0 0.00 0.00 0.00 28 1007.8
20260508204515 23 0.0 0.0 0.00 0.00 0.00 26 1007.9
20260508203535 23 0.0 0.0 0.00 0.00 0.00 27 1007.9
20260508202515 24 0.0 0.0 0.00 0.00 0.00 26 1007.9
20260508201515 23 0.0 0.0 0.00 0.00 0.00 26 1007.9
20260508200515 23 0.0 0.0 0.00 0.00 0.00 37 1007.9
20260508195517 22 0.0 0.0 0.00 0.00 0.00 33 1007.9
20260508194517 24 0.0 0.0 0.00 0.00 0.00 28 1008.0
20260508193517 23 0.0 1.6 0.00 0.00 0.00 29 1008.0
20260508192517 23 0.0 0.0 0.00 0.00 0.00 33 1008.1
20260508191537 23 0.0 1.6 0.00 0.00 0.00 31 1008.1
20260508190517 23 0.0 0.0 0.00 0.00 0.00 34 1008.1
20260508185517 22 0.0 9.7 0.00 0.00 0.00 33 1008.2
20260508184557 23 0.0 0.0 0.00 0.00 0.00 33 1008.3
20260508183517 23 0.0 0.0 0.00 0.00 0.00 33 1008.5
20260508182517 23 0.0 0.0 0.00 0.00 0.00 35 1008.6
20260508181517 22 0.0 1.6 0.00 0.00 0.00 37 1008.6
20260508180517 22 0.0 0.0 0.00 0.00 0.00 40 1008.6
20260508175517 22 0.0 0.0 0.00 0.00 0.00 36 1008.7
20260508174517 21 0.0 1.6 0.00 0.00 0.00 37 1008.8
20260508173517 22 0.0 1.6 0.00 0.00 0.00 32 1008.7
20260508172517 22 0.0 3.2 0.00 0.00 0.00 36 1008.8
20260508171517 22 0.0 0.0 0.00 0.00 0.00 36 1008.8
20260508170557 21 0.0 0.0 0.00 0.00 0.00 32 1008.8
20260508165517 22 0.0 0.0 0.00 0.00 0.00 36 1008.8
20260508164517 21 0.0 0.0 0.00 0.00 0.00 36 1008.7
20260508163516 20 0.0 0.0 0.00 0.00 0.00 39 1008.7
20260508162517 18 0.0 0.0 0.00 0.00 0.00 45 1008.7
20260508161517 18 0.0 0.0 0.00 0.00 0.00 46 1008.7
20260508160516 17 0.0 0.0 0.00 0.00 0.00 47 1008.6
20260508155516 17 0.0 0.0 0.00 0.00 0.00 47 1008.6
20260508154516 16 0.0 0.0 0.00 0.00 0.00 49 1008.6
20260508153516 16 0.0 0.0 0.00 0.00 0.00 51 1008.5
20260508152536 15 0.0 0.0 0.00 0.00 0.00 51 1008.5
20260508151516 14 0.0 0.0 0.00 0.00 0.00 54 1008.5
20260508150516 13 0.0 0.0 0.00 0.00 0.00 55 1008.4
20260508145517 13 0.0 0.0 0.00 0.00 0.00 55 1008.2
20260508144516 13 0.0 0.0 0.00 0.00 0.00 56 1008.1
20260508143516 13 0.0 0.0 0.00 0.00 0.00 55 1008.0
20260508142516 13 0.0 0.0 0.00 0.00 0.00 58 1008.0
20260508141516 12 0.0 0.0 0.00 0.00 0.00 57 1007.9
20260508140516 13 0.0 0.0 0.00 0.00 0.00 52 1007.8
20260508135516 12 0.0 0.0 0.00 0.00 0.00 52 1007.8
20260508134516 11 0.0 0.0 0.00 0.00 0.00 55 1007.7
20260508133516 10 0.0 0.0 0.00 0.00 0.00 54 1007.7
20260508132516 11 0.0 0.0 0.00 0.00 0.00 52 1007.6
20260508131516 11 0.0 0.0 0.00 0.00 0.00 49 1007.4
20260508130516 12 0.0 0.0 0.00 0.00 0.00 47 1007.4
20260508125516 11 0.0 0.0 0.00 0.00 0.00 49 1007.3
20260508124516 11 0.0 0.0 0.00 0.00 0.00 51 1007.1
20260508123516 11 0.0 0.0 0.00 0.00 0.00 51 1007.0
20260508122516 11 0.0 0.0 0.00 0.00 0.00 50 1007.0
20260508121516 10 0.0 0.0 0.00 0.00 0.00 54 1006.9
20260508120516 10 0.0 0.0 0.00 0.00 0.00 52 1006.7
20260508115516 11 0.0 0.0 0.00 0.00 0.00 50 1006.6
20260508114516 11 0.0 0.0 0.00 0.00 0.00 48 1006.5
20260508113516 10 0.0 0.0 0.00 0.00 0.00 51 1006.5
20260508112536 10 0.0 0.0 0.00 0.00 0.00 51 1006.5
20260508111536 11 0.0 0.0 0.00 0.00 0.00 51 1006.6
20260508110516 11 0.0 0.0 0.00 0.00 0.00 49 1006.5
20260508105516 11 0.0 0.0 0.00 0.00 0.00 50 1006.4
20260508104516 12 0.0 0.0 0.00 0.00 0.00 43 1006.4
20260508103516 12 0.0 0.0 0.00 0.00 0.00 45 1006.3
20260508102516 12 0.0 0.0 0.00 0.00 0.00 45 1006.2
20260508101536 12 0.0 0.0 0.00 0.00 0.00 46 1006.2
20260508100515 12 0.0 0.0 0.00 0.00 0.00 48 1006.2
20260508095015 14 0.0 0.0 0.00 0.00 0.00 39 1006.3
20260508094016 13 0.0 0.0 0.00 0.00 0.00 43 1006.3
20260508093016 12 0.0 0.0 0.00 0.00 0.00 46 1006.3
20260508092015 13 0.0 0.0 0.00 0.00 0.00 45 1006.2
20260508091016 13 0.0 0.0 0.00 0.00 0.00 46 1006.2
20260508090015 12 0.0 0.0 0.00 0.00 0.00 47 1006.3
20260508085015 13 0.0 0.0 0.00 0.00 0.00 47 1006.3
20260508084016 13 0.0 0.0 0.00 0.00 0.00 46 1006.2
20260508083055 13 0.0 0.0 0.00 0.00 0.00 46 1006.3
20260508082015 13 0.0 0.0 0.00 0.00 0.00 45 1006.2
20260508081015 15 0.0 0.0 0.00 0.00 0.00 42 1006.3
20260508080035 15 0.0 0.0 0.00 0.00 0.00 40 1006.3
20260508075015 13 0.0 0.0 0.00 0.00 0.00 47 1006.2
20260508074015 14 0.0 0.0 0.00 0.00 0.00 46 1006.2
20260508073015 15 0.0 0.0 0.00 0.00 0.00 42 1006.3
20260508072017 14 0.0 0.0 0.00 0.00 0.00 45 1006.3
20260508071017 14 0.0 0.0 0.00 0.00 0.00 46 1006.2
20260508070017 15 0.0 0.0 0.00 0.00 0.00 41 1006.2
20260508065017 16 0.0 0.0 0.00 0.00 0.00 41 1006.2
20260508064017 15 0.0 0.0 0.00 0.00 0.00 43 1006.1
20260508063017 15 0.0 0.0 0.00 0.00 0.00 44 1006.0
20260508062017 16 0.0 0.0 0.00 0.00 0.00 40 1005.9
20260508061017 16 0.0 0.0 0.00 0.00 0.00 39 1005.9
20260508060015 16 0.0 0.0 0.00 0.00 0.00 39 1005.9
20260508055017 16 0.0 0.0 0.00 0.00 0.00 39 1005.8
20260508054016 16 0.0 0.0 0.00 0.00 0.00 39 1005.9
20260508053016 16 0.0 0.0 0.00 0.00 0.00 39 1005.8
20260508052016 16 0.0 0.0 0.00 0.00 0.00 41 1005.9
20260508051017 16 0.0 0.0 0.00 0.00 0.00 40 1005.7
20260508050017 17 0.0 0.0 0.00 0.00 0.00 37 1005.7
20260508045016 16 0.0 0.0 0.00 0.00 0.00 40 1005.7
20260508044017 16 0.0 0.0 0.00 0.00 0.00 38 1005.7
20260508043036 17 0.0 0.0 0.00 0.00 0.00 37 1005.7
20260508042016 17 0.0 0.0 0.00 0.00 0.00 39 1005.7
20260508041016 18 0.0 0.0 0.00 0.00 0.00 36 1005.6
20260508040016 17 0.0 0.0 0.00 0.00 0.00 37 1005.6
20260508035016 17 0.0 0.0 0.00 0.00 0.00 37 1005.6
20260508034016 17 0.0 0.0 0.00 0.00 0.00 37 1005.3
20260508033017 18 0.0 0.0 0.00 0.00 0.00 35 1005.2
20260508032016 18 0.0 0.0 0.00 0.00 0.00 36 1005.1
20260508031016 18 0.0 0.0 0.00 0.00 0.00 35 1005.0
20260508030016 18 0.0 0.0 0.00 0.00 0.00 35 1005.0
20260508025016 18 0.0 0.0 0.00 0.00 0.00 35 1004.9
20260508024016 18 0.0 0.0 0.00 0.00 0.00 35 1004.9
20260508023016 18 0.0 0.0 0.00 0.00 0.00 35 1004.9
20260508022016 19 0.0 0.0 0.00 0.00 0.00 35 1004.8
20260508021036 19 0.0 0.0 0.00 0.00 0.00 35 1004.8
20260508020036 20 0.0 0.0 0.00 0.00 0.00 35 1004.8
20260508015016 20 0.0 0.0 0.00 0.00 0.00 35 1004.8
20260508014036 20 0.0 0.0 0.00 0.00 0.00 37 1004.8
20260508013016 20 0.0 0.0 0.00 0.00 0.00 37 1004.8
20260508012016 20 0.0 0.0 0.00 0.00 0.00 34 1004.8
20260508011036 21 0.0 0.0 0.00 0.00 0.00 31 1004.9
20260508010016 21 0.0 0.0 0.00 0.00 0.00 33 1005.0
20260508005036 21 0.0 0.0 0.00 0.00 0.00 32 1004.9
20260508004016 21 0.0 0.0 0.00 0.00 0.00 32 1005.0
20260508003016 21 0.0 0.0 0.00 0.00 0.00 32 1004.8
20260508002016 21 0.0 0.0 0.00 0.00 0.00 31 1004.9
20260508001016 21 0.0 0.0 0.00 0.00 0.00 33 1005.2
20260508000016 21 0.0 0.0 0.00 0.00 0.00 33 1005.5
20260507235016 21 0.0 0.0 0.00 0.00 0.00 31 1005.5
20260507234016 22 0.0 0.0 0.00 0.00 0.00 30 1005.6
20260507233016 22 0.0 0.0 0.00 0.00 0.00 31 1005.7
20260507232016 22 0.0 0.0 0.00 0.00 0.00 32 1005.7
20260507231015 22 0.0 0.0 0.00 0.00 0.00 31 1005.8
20260507230015 22 0.0 0.0 0.00 0.00 0.00 30 1006.0
20260507225016 21 0.0 0.0 0.00 0.00 0.00 33 1006.3
20260507224015 21 0.0 0.0 0.00 0.00 0.00 32 1006.4
20260507223015 22 0.0 0.0 0.00 0.00 0.00 34 1006.6
20260507222016 21 0.0 0.0 0.00 0.00 0.00 34 1006.7
20260507221015 21 0.0 0.0 0.00 0.00 0.00 34 1006.7
20260507220015 21 0.0 0.0 0.00 0.00 0.00 32 1006.8
20260507215016 21 0.0 0.0 0.00 0.00 0.00 34 1006.9